Notices

What's New in latest Release from April 7th, 2021:

- Updated Glossary, including Speed of Maximum Gust, and Total Hourly Precipitation

- Updated national and regional climate services offices contacts and prices information

- Addition of station inventory lists for 1981-2010, 1971-2000, and 1961-1990 Normals.

If you haven't already, please take our survey and provide feedback about our website: https://eccc.sondage-survey.ca/f/LanguageSelection.aspx?s=442ca660-fcf1-47c0-95a9-59707d6fd709

Hourly Data Report for November 16, 2019

QUALICUM BEACH AIRPORT
BRITISH COLUMBIA
Current Station Operator: ECCC - MSC

49°20'14.000" N
124°23'38.000" W
58.20 m
1026562
71766
VOQ

Download Data

Hourly Data (November 2019)
Hourly Data Report for November 16, 2019
TIME
LST
Temp Definition
°C
Dew Point Definition
°C
Rel Hum Definition
%
Precip. Amount Definition
mm

Wind Dir Definition
10's deg

Wind Spd Definition
km/h
Visibility Definition
km
Stn Press Definition
kPa
Hmdx Definition


Wind Chill Definition


Weather Definition


00:00 3.7 3.5 99 LegendMM 16 2   101.74     LegendNANA
01:00 5.1 4.9 99 LegendMM 18 5   101.73     LegendNANA
02:00 6.8 6.5 98 LegendMM 10 5   101.76     LegendNANA
03:00 6.1 5.8 98 LegendMM 16 5   101.76     LegendNANA
04:00 7.2 7.0 98 LegendMM   0   101.70     LegendNANA
05:00 6.7 6.4 98 LegendMM 15 7   101.67     LegendNANA
06:00 7.7 7.4 98 LegendMM 13 7   101.66     LegendNANA
07:00 7.8 7.5 98 LegendMM 12 10   101.60     LegendNANA
08:00 7.9 7.5 97 LegendMM 12 13   101.59     LegendNANA
09:00 8.4 7.8 96 LegendMM 13 12   101.55     LegendNANA
10:00 9.3 8.4 94 LegendMM 12 14   101.54     LegendNANA
11:00 9.5 8.4 92 LegendMM 12 17   101.47     LegendNANA
12:00 9.9 8.4 90 LegendMM 12 15   101.43     LegendNANA
13:00 9.9 8.4 90 LegendMM 12 21   101.37     LegendNANA
14:00 9.6 8.6 93 LegendMM 12 22   101.34     LegendNANA
15:00 9.7 8.8 94 LegendMM 12 24   101.27     LegendNANA
16:00 9.8 8.7 93 LegendMM 13 25   101.24     LegendNANA
17:00 9.7 8.7 94 LegendMM 13 25   101.18     LegendNANA
18:00 9.7 8.6 93 LegendMM 13 28   101.14     LegendNANA
19:00 9.8 8.6 92 LegendMM 13 25   101.04     LegendNANA
20:00 9.7 8.5 93 LegendMM 12 29   100.99     LegendNANA
21:00 9.7 8.7 94 LegendMM 13 27   100.96     LegendNANA
22:00 9.6 8.8 95 LegendMM 12 25   100.79     LegendNANA
23:00 9.9 9.0 94 LegendMM 12 30   100.74     LegendNANA

Notes on Data Quality.

Legend

  • E = Estimated
  • M = Missing
  • NA = Not Available*
  • [empty] = Indicates an unobserved value
Date modified: